Location: Boulin
(43.2500°N, 0.1333°E)
Time: 05:14:10
(UTC+00:00)

Cosmos 1933 - Pass Details

Date: 25 March 2026
Orbit: 507 x 515 km, 82.5° (Epoch: 15 April)

Event Time Altitude Azimuth Distance (km) Brightness Sun altitude
Exits shadow 05:20:29 - 271° (W) 1,856 5.3 -6.9°
Drops below altitude 10° 05:21:11 10° 280° (W) 1,776 5.3 -6.8°
Maximum altitude 05:22:01 10° 293° (WNW) 1,741 5.4 -6.6°
Sets 05:26:42 0° 345° (NNW) 2,633 6.7 -5.8°
